EHI
0 1 1 2 5 9 14 18 19 18 17 15 11 7 6 5 3 1 0 0 0 0 0 0 0 0 0 0 0 0 0 0 0 1 2 2 1 0 0 0 0 1 1
1 2 3 3 4 8 15 20 21 19 17 15 11 7 4 3 1 0 0 0 0 1 1 1 1 0 0 0 0 0 0 0 0 0 1 1 0 0 0 0 0 0 1
4 5 5 4 3 7 15 20 21 19 17 15 12 8 4 1 0 0 0 0 0 1 2 2 1 0 0 0 0 0 0 0 0 0 0 0 0 0 0 0 0 0 0
6 7 8 7 6 9 15 19 20 18 16 15 13 9 5 2 0 0 0 0 0 1 1 1 1 0 0 1 0 0 0 0 0 0 0 0 0 0 0 0 0 0 0
8 8 10 13 13 13 16 20 20 18 16 15 13 9 5 1 0 0 1 1 0 0 0 0 0 0 0 0 0 0 0 0 0 0 0 0 0 0 0 0 0 0 0
8 9 11 16 18 16 17 20 22 20 18 15 11 8 5 1 0 1 2 2 1 0 0 0 0 0 0 0 0 0 0 0 0 0 0 0 0 0 0 0 0 0 0
7 8 12 16 18 16 17 19 20 21 19 15 12 9 6 3 1 2 2 2 1 0 0 0 0 0 0 0 0 0 0 0 0 0 0 0 0 0 0 0 0 0 0
6 7 11 14 14 14 14 16 17 17 15 13 11 11 8 5 2 1 1 1 1 0 0 0 0 0 0 0 0 0 0 0 0 0 0 0 0 0 0 0 0 0 0
6 8 10 10 10 9 10 11 13 12 11 10 10 10 9 5 2 1 0 0 0 0 0 0 0 0 0 0 0 0 0 0 0 0 0 0 0 0 0 0 0 0 0
7 8 9 9 8 6 6 7 8 8 8 8 8 7 6 3 1 0 0 0 0 0 0 0 0 0 0 0 0 0 0 0 0 0 0 0 0 0 0 0 0 0 0
7 8 9 9 8 6 5 5 6 6 6 6 6 4 2 0 0 0 0 0 0 0 0 0 0 0 0 0 0 0 0 0 0 0 0 0 0 0 0 0 0 0 0
5 5 6 7 7 6 6 5 5 4 3 4 4 2 1 0 0 0 0 0 0 0 0 0 0 0 0 0 0 0 0 0 0 0 0 0 0 0 0 0 0 0 0
4 4 4 5 6 6 5 4 4 3 3 4 3 3 1 0 0 0 0 0 0 0 0 0 0 0 0 0 0 0 0 0 0 0 0 0 0 0 0 0 0 0 0
2 2 3 4 5 4 4 3 3 4 5 4 3 2 1 0 0 0 0 0 0 0 0 0 0 0 0 0 0 0 0 0 0 0 0 0 0 0 0 0 0 0 0
1 1 1 1 3 3 3 3 3 4 5 4 2 1 1 0 0 0 0 0 0 0 0 0 0 0 0 0 0 0 0 0 0 0 0 0 0 0 0 0 0 0 0
0 0 0 0 1 2 3 3 3 4 4 3 1 0 0 0 0 0 0 0 0 0 0 0 0 0 0 0 0 0 0 0 0 0 0 0 0 0 0 0 0 0 0
0 0 0 0 1 1 1 1 3 3 3 2 1 0 0 0 0 0 0 0 0 0 0 0 0 0 0 0 0 0 0 0 0 0 0 0 0 0 0 0 0 0 0
0 0 0 0 0 0 0 1 1 1 1 1 0 0 0 0 0 0 0 0 0 0 0 0 0 0 0 0 0 0 0 0 0 0 0 0 0 0 0 0 0 0 0
0 0 0 0 0 0 0 0 0 0 0 0 0 0 0 0 0 0 0 0 0 0 0 0 0 0 0 0 0 0 0 0 0 0 0 0 0 0 0 0 0 0 0
0 0 0 0 0 1 1 0 0 0 0 0 0 0 0 0 0 0 0 0 0 0 0 0 0 0 0 0 0 0 0 0 0 0 0 0 0 0 0 0 0 0 0
0 0 0 0 1 2 2 1 0 0 0 0 0 0 0 0 0 0 0 0 0 0 0 0 0 0 0 0 0 0 0 0 0 0 0 0 0 0 0 0 0 0 0
0 0 0 0 1 2 3 2 1 0 0 0 0 0 0 0 0 0 0 0 0 0 0 0 0 0 0 0 0 0 0 0 0 0 0 0 0 0 0 0 0 0 0
0 0 0 0 1 2 3 2 1 0 0 0 0 0 0 0 0 0 0 0 0 0 0 0 0 0 0 0 0 0 0 0 0 0 0 0 0 0 0 0 0 0 0
0 0 0 0 1 2 3 3 1 0 0 0 0 0 0 0 0 0 0 0 0 0 0 0 0 0 0 0 0 0 0 0 0 0 0 0 0 0 0 0 0 0 0
0 0 0 0 1 2 3 3 2 1 0 0 0 0 0 0 0 0 0 0 0 0 0 0 0 0 0 0 0 0 0 0 0 0 0 0 0 0 0 0 0 0 0
0 0 0 0 0 1 3 3 2 1 0 0 0 0 0 0 0 0 0 0 0 0 0 0 0 0 0 0 0 0 0 0 0 0 0 0 0 0 0 0 0 0 0
Wind_Speed
4 4 8 10 11 11 12 12 12 12 12 12 13 13 13 12 12 11 11 10 10 10 10 10 10 9 9 9 9 9 9 9 8 8 8 7 6 6 6 5 5 3 4
6 5 10 11 11 11 12 12 12 12 12 12 12 12 12 12 12 11 10 10 10 10 10 9 9 9 9 8 8 8 8 8 8 8 8 7 6 6 5 5 4 2 3
7 6 9 11 11 11 12 12 12 11 12 12 12 11 11 11 11 11 10 10 10 10 10 10 9 8 8 8 8 7 7 7 7 7 7 4 4 5 5 5 4 3 3
7 6 7 11 12 11 11 12 11 11 11 11 11 11 11 11 10 10 10 10 10 10 9 9 9 8 8 8 8 7 7 7 7 7 4 3 3 4 4 4 4 4 3
7 6 7 11 12 12 11 11 11 11 11 11 11 10 10 10 10 10 10 9 9 9 9 9 8 8 8 8 7 8 8 8 8 6 3 3 3 5 5 5 4 5 4
6 5 7 11 11 11 11 11 11 10 10 10 10 10 10 10 9 9 9 9 9 8 8 8 8 8 8 8 7 8 8 8 7 3 3 3 3 5 6 6 5 5 5
6 5 6 11 11 11 11 11 10 10 10 10 10 10 10 10 9 9 9 9 8 8 8 8 7 7 7 8 8 8 8 8 5 3 3 3 3 6 6 6 5 5 5
7 5 5 10 10 10 10 10 10 10 10 10 10 10 10 9 9 9 9 8 8 8 8 8 8 8 8 8 8 8 8 7 5 4 3 3 5 6 6 6 6 6 6
6 6 5 5 7 9 10 10 10 10 10 10 9 9 9 9 9 9 8 8 8 8 8 8 8 8 8 8 8 9 9 9 5 3 4 3 6 7 7 7 7 7 6
5 5 5 5 5 5 6 9 10 10 10 10 10 10 10 9 8 9 8 8 8 9 8 8 8 8 9 9 9 9 9 7 4 3 2 4 7 7 7 7 7 7 7
4 4 5 5 5 5 5 7 8 9 10 9 8 10 9 5 4 5 7 9 9 9 9 9 9 9 9 8 9 9 7 3 3 3 2 6 8 8 8 8 7 7 7
6 4 4 5 5 5 4 4 4 4 5 5 4 5 4 4 4 5 8 9 9 9 9 9 10 9 7 3 5 7 3 3 3 3 3 8 8 8 8 8 8 8 8
7 5 4 5 5 5 4 4 3 3 3 4 4 4 4 3 3 4 3 4 5 6 5 6 6 4 3 3 3 3 3 3 2 3 4 9 9 9 9 8 8 9 9
7 6 5 5 5 5 4 3 3 2 2 2 3 3 3 2 3 2 2 2 3 2 3 3 2 3 4 4 3 3 4 2 2 2 4 9 10 9 9 9 9 10 10
7 7 6 5 5 5 4 3 3 3 3 2 2 2 3 3 2 2 2 2 2 2 2 2 3 3 3 4 4 4 4 4 3 3 3 9 9 9 9 10 10 11 11
9 8 6 6 5 5 4 3 3 3 3 2 2 2 3 2 2 2 2 2 2 2 2 2 2 2 2 2 3 3 3 3 3 3 3 5 9 10 10 11 11 12 12
9 8 7 7 5 5 5 4 3 3 3 2 2 2 2 2 2 2 2 1 1 1 2 2 2 2 2 3 3 3 3 3 3 3 3 3 4 8 10 11 12 13 13
8 8 8 7 7 6 5 4 3 3 3 2 2 2 2 2 2 2 2 1 1 1 2 2 2 2 2 3 3 3 3 3 3 3 3 3 3 3 6 11 13 14 14
9 9 8 7 7 6 5 4 3 3 2 2 2 1 2 2 2 2 1 1 1 1 2 2 2 1 2 3 3 3 3 2 3 3 3 3 3 3 3 7 12 14 14
8 8 8 7 6 6 5 4 3 2 2 1 1 1 2 2 2 2 1 1 1 2 2 2 2 2 1 2 3 3 3 3 2 2 2 3 3 3 3 4 5 8 13
8 9 9 8 7 6 4 4 3 2 1 1 1 1 1 1 2 2 1 1 1 1 1 1 1 2 2 2 2 3 3 2 2 2 2 2 3 3 3 4 4 4 5
10 10 10 9 8 8 5 4 3 3 2 1 1 1 1 1 1 1 2 1 1 1 1 1 1 1 2 3 2 2 4 4 3 3 2 2 3 3 4 5 5 5 5
10 11 11 10 9 8 6 4 4 3 2 1 0 0 1 1 1 1 1 1 1 1 0 0 0 1 1 2 1 1 1 3 5 3 3 3 3 3 4 4 5 6 6
11 10 10 10 9 8 8 7 7 5 3 3 2 1 1 1 1 1 1 1 1 1 1 1 0 0 1 1 1 0 1 2 2 5 4 3 3 4 5 5 6 6 6
9 9 9 9 8 8 8 8 7 4 3 2 2 2 1 1 1 1 1 1 1 1 1 1 0 0 1 1 1 1 1 1 2 3 7 7 5 4 4 5 5 5 6
6 7 7 9 8 8 8 7 7 7 5 4 2 2 1 0 0 1 1 1 1 1 1 1 1 1 1 1 1 1 1 2 2 3 5 8 8 6 5 5 5 5 5
Wind_Direction
174 180 157 135 127 121 117 112 108 104 101 98 96 94 92 89 87 85 83 81 79 76 75 74 72 70 68 67 66 65 62 60 57 53 50 55 60 61 62 56 49 48 63
151 158 146 134 129 124 119 114 109 106 103 100 97 94 91 88 85 83 81 78 76 74 73 72 70 67 63 63 66 65 61 58 54 50 43 42 47 53 55 49 41 48 52
135 142 139 134 130 125 120 116 112 108 105 101 98 95 93 90 86 82 78 75 72 70 68 67 66 66 64 61 61 63 59 56 54 49 38 23 24 42 42 36 31 32 35
129 131 135 134 130 128 124 121 117 112 108 104 101 98 94 91 87 82 77 74 71 68 66 63 63 63 62 59 58 57 55 51 51 46 33 16 6 21 22 21 20 17 14
116 119 135 134 131 128 125 123 119 115 111 107 104 99 96 92 87 82 78 75 71 68 66 62 60 59 58 55 54 52 50 47 46 46 33 15 0 4 5 4 4 359 357
113 113 129 129 129 128 126 123 119 116 114 109 105 100 97 92 86 81 76 73 71 68 64 60 57 55 52 49 48 50 47 45 44 42 28 9 351 353 354 355 353 350 346
119 111 126 127 126 123 120 119 118 116 112 109 104 100 96 91 87 81 76 72 69 66 61 57 53 49 47 44 41 44 44 41 43 34 17 360 341 345 349 351 351 348 347
120 107 114 126 124 121 118 114 112 113 111 107 103 98 93 90 88 84 78 73 69 64 60 54 51 46 42 38 37 38 39 36 36 24 6 353 347 348 353 357 355 352 353
108 103 96 103 112 116 115 113 110 106 106 105 101 95 90 86 84 80 75 71 65 62 57 51 47 43 40 37 36 35 34 33 35 13 356 343 349 353 354 355 352 349 347
99 102 102 97 94 96 103 108 105 102 98 96 93 88 82 77 76 74 68 66 63 58 53 49 45 43 40 38 36 34 31 27 17 1 345 338 351 351 349 348 346 345 340
113 104 109 106 99 97 96 98 96 95 91 86 84 85 78 63 58 60 60 62 60 57 53 49 45 42 40 37 35 34 29 18 5 354 336 348 351 348 345 342 342 341 336
154 139 124 117 111 103 94 87 78 76 78 75 76 77 74 66 60 60 56 58 57 54 50 47 43 39 34 24 25 27 21 11 11 350 347 357 355 351 347 345 344 341 336
161 150 139 130 120 111 105 99 85 81 77 74 78 79 76 68 60 53 48 41 38 41 37 33 31 25 25 21 18 15 12 11 3 345 347 359 358 354 349 346 344 344 342
159 160 151 140 127 118 113 108 104 97 90 85 83 87 86 78 67 59 56 44 38 33 34 29 27 21 22 20 20 19 14 8 358 345 347 0 358 355 353 352 349 346 344
167 167 161 148 139 131 121 118 112 110 107 105 93 85 93 93 84 72 61 53 42 36 38 30 27 23 20 14 15 17 9 1 356 351 341 357 0 360 358 355 351 347 342
178 175 164 154 147 138 134 132 129 122 116 108 101 94 94 98 96 84 71 56 40 33 34 38 26 23 13 9 7 3 355 349 350 348 343 349 360 360 359 356 351 346 342
179 173 169 161 150 145 141 139 131 128 123 118 113 103 99 100 103 95 82 63 34 27 35 37 26 25 20 12 0 350 351 347 342 340 338 343 343 354 356 356 353 348 343
172 171 172 165 155 152 145 139 131 128 125 124 120 112 107 106 108 97 82 55 30 40 41 38 28 22 11 1 347 338 337 334 335 333 336 340 341 340 345 354 353 348 343
177 172 171 166 161 155 144 132 126 126 125 127 122 118 117 111 110 106 95 48 51 55 42 29 27 25 1 349 336 333 333 331 325 332 336 335 334 335 332 344 348 345 341
177 172 170 164 159 145 130 115 104 103 110 115 129 135 125 117 114 108 100 65 60 63 37 29 20 12 356 329 331 335 324 316 319 322 314 322 328 333 332 330 333 334 338
174 174 174 167 162 151 145 145 144 157 155 146 148 140 135 125 120 113 99 76 65 76 55 33 29 18 5 348 4 342 329 321 322 308 307 317 323 320 324 324 322 319 321
182 181 178 175 169 168 165 155 143 138 148 160 156 142 147 139 135 122 123 120 98 82 50 33 45 37 0 11 34 4 343 337 334 311 308 301 306 315 321 321 316 313 307
185 184 181 179 173 169 152 129 106 89 79 91 154 177 194 171 157 137 144 145 139 137 167 293 94 88 4 357 40 101 29 302 315 303 286 291 303 307 302 303 307 306 307
191 183 178 175 170 165 156 155 154 160 171 190 183 192 207 178 163 150 152 155 157 163 196 247 32 168 144 329 343 8 214 230 291 309 309 297 296 295 293 303 304 301 301
182 177 175 168 167 164 164 166 163 161 162 150 142 154 169 186 171 165 160 157 171 196 221 245 284 238 187 212 243 261 287 282 244 267 296 308 306 287 284 288 289 295 298
170 167 166 163 167 167 166 167 169 165 157 149 156 164 178 213 235 206 170 178 202 219 229 237 238 233 235 237 253 248 248 260 274 271 284 300 304 301 295 285 285 290 294